Weather in Sackville

Canada     45°53′47″N   64°22′41″W
temp.,
°C
wind,
m/s
gust,
m/s
humid.,
%
clouds,
%
prec.,
mm/h
press.,
hPa
HPBL,
m
18 october, mon
mon1800:00+12wsw279842 0.0 999211
03:00+12w3689100 0.1 999493
06:00+9w379636 0.0 1000321
09:00+9w379389 0.0 1001329
12:00+11wnw467691 0.0 1001723
15:00+14wnw455415 0.0 10001481
18:00+11wnw486574 0.0 1000519
21:00+7w38805 0.0 1002223
19 october, tue
tue1900:00+6w310846 0.0 1002323
03:00+5w399236 0.0 1002348
06:00+5wsw389282 0.0 1002303
09:00+7w4879100 0.0 1003681
12:00+8w577293 0.0 1003986
15:00+8w4765100 0.1 10021253
18:00+7w4871100 0.1 1003888
21:00+5wsw3788100 0.1 1004687
20 october, wed
wed2000:00+6w3687100 0.1 1003935
03:00+5w3691100 0.3 1004787
06:00+5w3895100 0.3 1005506
09:00+6w479297 0.5 1006481
12:00+9wnw567695 0.3 10071091
15:00+11nw456766 0.6 10071176
18:00+9wnw247974 0.2 1009100
21:00+7w498698 0.3 1011403
21 october, thu
thu2100:00+6w389014 0.0 1012230
03:00+7w3887100 0.0 1013293
06:00+7w3785100 0.0 1014320
09:00+7w378411 0.0 1017344
12:00+11w34605 0.0 1017969
15:00+13wsw345181 0.0 10161401
18:00+10ssw3877100 0.0 1016290
21:00+10s287796 0.0 1016316
22 october, fri
fri2200:00+8sse2993100 0.0 1015220
03:00+9sse3139774 0.0 1012496
06:00+13s51492100 0.0 1009873
09:00+16s7158297 0.0 10071198
12:00+18ssw81780100 0.2 10051620
15:00+18ssw8187742 0.3 10051504
18:00+14ssw8167888 0.0 1005884
21:00+12w5986100 0.1 1007748